Time,TemperatureF,DewpointF,PressureIn,WindDirection,WindDirectionDegrees,WindSpeedMPH,WindSpeedGustMPH,Humidity,HourlyPrecipIn,Conditions,Clouds,dailyrainin,SoftwareType,DateUTC
2013-02-13 00:12:00,70.3,67.0,30.01,SSE,153,0.0,1.0,90,0.00,,,0.00,weatherlink.com 1.10,2013-02-13 05:12:00,
2013-02-13 00:27:00,70.0,67.0,30.01,SSE,153,0.0,0.0,90,0.00,,,0.00,weatherlink.com 1.10,2013-02-13 05:27:00,
2013-02-13 00:42:00,69.7,67.0,30.01,SSE,154,0.0,1.0,91,0.00,,,0.00,weatherlink.com 1.10,2013-02-13 05:42:00,
2013-02-13 00:57:00,69.1,66.0,30.00,SSE,153,0.0,0.0,91,0.00,,,0.00,weatherlink.com 1.10,2013-02-13 05:57:00,
2013-02-13 01:12:00,68.7,66.0,30.00,SSE,153,0.0,0.0,92,0.00,,,0.00,weatherlink.com 1.10,2013-02-13 06:12:00,
2013-02-13 01:27:00,68.4,66.0,30.00,SSE,153,0.0,0.0,93,0.00,,,0.00,weatherlink.com 1.10,2013-02-13 06:27:00,
2013-02-13 01:42:00,68.1,66.0,30.00,SSE,154,0.0,0.0,93,0.00,,,0.00,weatherlink.com 1.10,2013-02-13 06:42:00,
2013-02-13 01:57:00,68.0,66.0,29.99,SSE,153,0.0,0.0,94,0.00,,,0.00,weatherlink.com 1.10,2013-02-13 06:57:00,
2013-02-13 02:12:00,67.9,66.0,29.98,SSE,154,0.0,0.0,94,0.00,,,0.00,weatherlink.com 1.10,2013-02-13 07:12:00,
2013-02-13 02:27:00,67.7,66.0,29.98,SSE,152,0.0,0.0,94,0.00,,,0.00,weatherlink.com 1.10,2013-02-13 07:27:00,
2013-02-13 02:42:00,67.6,66.0,29.98,SSE,153,0.0,1.0,95,0.00,,,0.00,weatherlink.com 1.10,2013-02-13 07:42:00,
2013-02-13 02:57:00,67.5,66.0,29.98,SSE,153,0.0,0.0,95,0.00,,,0.00,weatherlink.com 1.10,2013-02-13 07:57:00,
2013-02-13 03:12:00,67.2,66.0,29.98,SSE,153,0.0,0.0,95,0.00,,,0.00,weatherlink.com 1.10,2013-02-13 08:12:00,
2013-02-13 03:27:00,67.0,66.0,29.98,SSE,153,0.0,0.0,95,0.00,,,0.00,weatherlink.com 1.10,2013-02-13 08:27:00,
2013-02-13 03:42:00,67.0,66.0,29.98,SSE,153,0.0,0.0,96,0.00,,,0.00,weatherlink.com 1.10,2013-02-13 08:42:00,
2013-02-13 03:57:00,66.7,66.0,29.98,SSE,153,0.0,0.0,96,0.00,,,0.00,weatherlink.com 1.10,2013-02-13 08:57:00,
2013-02-13 04:13:00,66.4,65.0,29.98,SSE,153,0.0,0.0,95,0.00,,,0.00,weatherlink.com 1.10,2013-02-13 09:13:00,
2013-02-13 04:28:00,65.7,65.0,29.98,SSE,154,0.0,0.0,96,0.00,,,0.00,weatherlink.com 1.10,2013-02-13 09:28:00,
2013-02-13 04:43:00,65.9,65.0,29.98,SSE,153,0.0,0.0,96,0.00,,,0.00,weatherlink.com 1.10,2013-02-13 09:43:00,
2013-02-13 04:58:00,65.9,65.0,29.98,SSE,153,0.0,0.0,96,0.00,,,0.00,weatherlink.com 1.10,2013-02-13 09:58:00,
2013-02-13 05:13:00,66.2,65.0,29.98,SSE,153,0.0,0.0,96,0.00,,,0.00,weatherlink.com 1.10,2013-02-13 10:13:00,
2013-02-13 05:28:00,66.3,65.0,29.98,SSE,153,0.0,0.0,96,0.00,,,0.00,weatherlink.com 1.10,2013-02-13 10:28:00,
2013-02-13 05:43:00,66.1,65.0,29.98,SSE,153,0.0,0.0,96,0.00,,,0.00,weatherlink.com 1.10,2013-02-13 10:43:00,
2013-02-13 05:58:00,66.0,65.0,29.98,SSE,153,0.0,0.0,96,0.00,,,0.00,weatherlink.com 1.10,2013-02-13 10:58:00,
2013-02-13 06:13:00,66.3,66.0,29.98,SSE,154,0.0,0.0,97,0.00,,,0.00,weatherlink.com 1.10,2013-02-13 11:13:00,
2013-02-13 06:28:00,66.6,66.0,29.98,SSE,153,0.0,0.0,97,0.00,,,0.00,weatherlink.com 1.10,2013-02-13 11:28:00,
2013-02-13 06:43:00,66.8,66.0,29.99,SSE,153,0.0,0.0,97,0.00,,,0.00,weatherlink.com 1.10,2013-02-13 11:43:00,
2013-02-13 06:58:00,67.4,67.0,29.98,SSE,153,0.0,0.0,97,0.00,,,0.00,weatherlink.com 1.10,2013-02-13 11:58:00,
2013-02-13 07:13:00,68.0,67.0,29.99,SSE,153,0.0,0.0,97,0.00,,,0.00,weatherlink.com 1.10,2013-02-13 12:13:00,
2013-02-13 07:28:00,68.4,68.0,29.99,SSE,153,0.0,0.0,97,0.00,,,0.00,weatherlink.com 1.10,2013-02-13 12:28:00,
2013-02-13 07:43:00,70.5,70.0,29.99,SSE,153,0.0,0.0,97,0.00,,,0.00,weatherlink.com 1.10,2013-02-13 12:43:00,
2013-02-13 07:58:00,72.0,71.0,29.99,SSE,152,0.0,1.0,96,0.00,,,0.00,weatherlink.com 1.10,2013-02-13 12:58:00,
2013-02-13 08:13:00,73.2,72.0,29.99,SSW,211,0.0,1.0,95,0.00,,,0.00,weatherlink.com 1.10,2013-02-13 13:13:00,
2013-02-13 08:28:00,74.5,72.0,29.99,East,101,0.0,2.0,93,0.00,,,0.00,weatherlink.com 1.10,2013-02-13 13:28:00,
2013-02-13 08:43:00,76.5,72.0,30.00,NE,53,1.0,2.0,87,0.00,,,0.00,weatherlink.com 1.10,2013-02-13 13:43:00,
2013-02-13 08:58:00,78.5,73.0,30.00,South,172,0.0,3.0,83,0.00,,,0.00,weatherlink.com 1.10,2013-02-13 13:58:00,
2013-02-13 09:13:00,79.9,73.0,30.01,ESE,108,0.0,3.0,79,0.00,,,0.00,weatherlink.com 1.10,2013-02-13 14:13:00,
2013-02-13 09:28:00,79.8,72.0,30.01,WNW,297,0.0,5.0,77,0.00,,,0.00,weatherlink.com 1.10,2013-02-13 14:28:00,
2013-02-13 09:43:00,81.2,73.0,30.01,NE,44,0.0,4.0,75,0.00,,,0.00,weatherlink.com 1.10,2013-02-13 14:43:00,
2013-02-13 09:58:00,81.9,72.0,30.01,ESE,113,0.0,4.0,71,0.00,,,0.00,weatherlink.com 1.10,2013-02-13 14:58:00,
2013-02-13 10:13:00,80.4,71.0,30.01,NNW,333,0.0,4.0,73,0.00,,,0.00,weatherlink.com 1.10,2013-02-13 15:13:00,
2013-02-13 10:28:00,81.1,72.0,30.01,SSW,198,0.0,3.0,73,0.00,,,0.00,weatherlink.com 1.10,2013-02-13 15:28:00,
2013-02-13 10:43:00,81.5,73.0,30.01,ENE,65,1.0,3.0,75,0.00,,,0.00,weatherlink.com 1.10,2013-02-13 15:43:00,
2013-02-13 10:58:00,80.9,73.0,30.00,East,90,3.0,7.0,76,0.00,,,0.00,weatherlink.com 1.10,2013-02-13 15:58:00,
2013-02-13 11:13:00,80.5,73.0,30.00,East,88,1.0,4.0,77,0.00,,,0.00,weatherlink.com 1.10,2013-02-13 16:13:00,
2013-02-13 11:28:00,80.6,73.0,29.99,SW,224,3.0,7.0,77,0.00,,,0.00,weatherlink.com 1.10,2013-02-13 16:28:00,
2013-02-13 11:43:00,80.8,73.0,29.98,NNE,22,2.0,6.0,77,0.00,,,0.00,weatherlink.com 1.10,2013-02-13 16:43:00,
2013-02-13 11:58:00,80.4,73.0,29.97,North,350,4.0,6.0,78,0.00,,,0.00,weatherlink.com 1.10,2013-02-13 16:58:00,
2013-02-13 12:13:00,80.4,73.0,29.97,NNE,25,2.0,7.0,78,0.00,,,0.00,weatherlink.com 1.10,2013-02-13 17:13:00,
2013-02-13 12:28:00,80.2,73.0,29.96,North,8,7.0,8.0,79,0.00,,,0.00,weatherlink.com 1.10,2013-02-13 17:28:00,
2013-02-13 12:43:00,79.9,74.0,29.95,SE,129,5.0,7.0,81,0.00,,,0.00,weatherlink.com 1.10,2013-02-13 17:43:00,
2013-02-13 12:59:00,79.9,74.0,29.95,NW,324,3.0,6.0,81,0.00,,,0.00,weatherlink.com 1.10,2013-02-13 17:59:00,
2013-02-13 13:14:00,79.6,73.0,29.94,NNW,330,4.0,8.0,81,0.00,,,0.00,weatherlink.com 1.10,2013-02-13 18:14:00,
2013-02-13 13:44:00,80.3,74.0,29.92,NNE,20,2.0,7.0,81,0.00,,,0.00,weatherlink.com 1.10,2013-02-13 18:44:00,
2013-02-13 13:59:00,80.8,73.0,29.91,NE,46,2.0,8.0,78,0.00,,,0.00,weatherlink.com 1.10,2013-02-13 18:59:00,
2013-02-13 14:14:00,79.8,73.0,29.91,NE,53,3.0,7.0,80,0.00,,,0.00,weatherlink.com 1.10,2013-02-13 19:14:00,
2013-02-13 14:29:00,79.5,73.0,29.90,NE,56,4.0,9.0,80,0.00,,,0.00,weatherlink.com 1.10,2013-02-13 19:29:00,
2013-02-13 14:44:00,79.3,73.0,29.90,SSE,155,2.0,7.0,81,0.00,,,0.00,weatherlink.com 1.10,2013-02-13 19:44:00,
2013-02-13 14:59:00,80.4,73.0,29.89,East,101,8.0,8.0,79,0.00,,,0.00,weatherlink.com 1.10,2013-02-13 19:59:00,
2013-02-13 15:14:00,81.0,74.0,29.89,WSW,242,1.0,9.0,78,0.00,,,0.00,weatherlink.com 1.10,2013-02-13 20:14:00,
2013-02-13 15:29:00,81.2,73.0,29.89,NE,56,2.0,6.0,76,0.00,,,0.00,weatherlink.com 1.10,2013-02-13 20:29:00,
2013-02-13 15:44:00,80.4,73.0,29.89,ENE,60,4.0,6.0,78,0.00,,,0.00,weatherlink.com 1.10,2013-02-13 20:44:00,
2013-02-13 15:59:00,80.2,73.0,29.88,NNE,15,3.0,8.0,78,0.00,,,0.00,weatherlink.com 1.10,2013-02-13 20:59:00,
2013-02-13 16:14:00,79.6,72.0,29.89,NE,49,2.0,6.0,78,0.00,,,0.00,weatherlink.com 1.10,2013-02-13 21:14:00,
2013-02-13 16:29:00,78.9,72.0,29.89,NE,40,1.0,5.0,80,0.00,,,0.00,weatherlink.com 1.10,2013-02-13 21:29:00,
2013-02-13 16:44:00,78.6,72.0,29.89,ESE,122,3.0,8.0,80,0.00,,,0.00,weatherlink.com 1.10,2013-02-13 21:44:00,
2013-02-13 16:59:00,78.7,72.0,29.89,NE,37,3.0,6.0,80,0.00,,,0.00,weatherlink.com 1.10,2013-02-13 21:59:00,
2013-02-13 17:14:00,78.7,72.0,29.89,SE,132,1.0,8.0,80,0.00,,,0.00,weatherlink.com 1.10,2013-02-13 22:14:00,
2013-02-13 17:29:00,78.4,73.0,29.89,NNE,19,3.0,5.0,82,0.00,,,0.00,weatherlink.com 1.10,2013-02-13 22:29:00,
2013-02-13 17:44:00,78.4,72.0,29.89,East,79,0.0,2.0,81,0.00,,,0.00,weatherlink.com 1.10,2013-02-13 22:44:00,
2013-02-13 17:59:00,78.6,70.0,29.89,SSE,167,0.0,2.0,76,0.00,,,0.00,weatherlink.com 1.10,2013-02-13 22:59:00,
2013-02-13 18:14:00,79.7,70.0,29.89,SSE,148,0.0,2.0,72,0.00,,,0.00,weatherlink.com 1.10,2013-02-13 23:14:00,
2013-02-13 18:29:00,79.6,70.0,29.90,SSE,155,0.0,4.0,72,0.00,,,0.00,weatherlink.com 1.10,2013-02-13 23:29:00,
2013-02-13 18:44:00,79.3,70.0,29.91,SSE,163,0.0,3.0,72,0.00,,,0.00,weatherlink.com 1.10,2013-02-13 23:44:00,
2013-02-13 18:59:00,78.9,70.0,29.91,SSE,155,0.0,2.0,73,0.00,,,0.00,weatherlink.com 1.10,2013-02-13 23:59:00,
2013-02-13 19:14:00,78.3,69.0,29.91,SE,131,0.0,2.0,74,0.00,,,0.00,weatherlink.com 1.10,2013-02-14 00:14:00,
2013-02-13 19:29:00,77.7,69.0,29.91,SSE,150,0.0,1.0,75,0.00,,,0.00,weatherlink.com 1.10,2013-02-14 00:29:00,
2013-02-13 19:44:00,77.0,69.0,29.92,SSE,154,1.0,1.0,76,0.00,,,0.00,weatherlink.com 1.10,2013-02-14 00:44:00,
2013-02-13 19:59:00,76.3,69.0,29.92,SSE,150,1.0,2.0,77,0.00,,,0.00,weatherlink.com 1.10,2013-02-14 00:59:00,
2013-02-13 20:14:00,76.2,68.0,29.93,SSE,150,1.0,2.0,75,0.00,,,0.00,weatherlink.com 1.10,2013-02-14 01:14:00,
2013-02-13 20:29:00,76.1,68.0,29.93,SSE,154,0.0,4.0,75,0.00,,,0.00,weatherlink.com 1.10,2013-02-14 01:29:00,
2013-02-13 20:44:00,75.6,68.0,29.94,SW,217,0.0,2.0,76,0.00,,,0.00,weatherlink.com 1.10,2013-02-14 01:44:00,
2013-02-13 20:59:00,75.1,68.0,29.95,South,174,0.0,2.0,78,0.00,,,0.00,weatherlink.com 1.10,2013-02-14 01:59:00,
2013-02-13 21:14:00,74.7,68.0,29.95,SE,134,0.0,2.0,79,0.00,,,0.00,weatherlink.com 1.10,2013-02-14 02:14:00,
2013-02-13 21:29:00,74.4,68.0,29.95,SW,215,1.0,2.0,81,0.00,,,0.00,weatherlink.com 1.10,2013-02-14 02:29:00,
2013-02-13 21:44:00,74.1,68.0,29.96,SSW,200,0.0,2.0,82,0.00,,,0.00,weatherlink.com 1.10,2013-02-14 02:44:00,
2013-02-13 21:59:00,74.0,68.0,29.96,SSE,156,0.0,3.0,82,0.00,,,0.00,weatherlink.com 1.10,2013-02-14 02:59:00,
2013-02-13 22:14:00,73.7,69.0,29.96,WNW,297,1.0,4.0,84,0.00,,,0.00,weatherlink.com 1.10,2013-02-14 03:14:00,
2013-02-13 22:29:00,73.5,68.0,29.97,SSE,155,0.0,2.0,84,0.00,,,0.00,weatherlink.com 1.10,2013-02-14 03:29:00,
2013-02-13 22:44:00,73.0,69.0,29.97,SSE,165,0.0,1.0,86,0.00,,,0.00,weatherlink.com 1.10,2013-02-14 03:44:00,
2013-02-13 22:59:00,72.6,69.0,29.97,SSE,151,0.0,1.0,87,0.00,,,0.00,weatherlink.com 1.10,2013-02-14 03:59:00,
2013-02-13 23:14:00,72.3,69.0,29.97,WSW,244,0.0,1.0,88,0.00,,,0.00,weatherlink.com 1.10,2013-02-14 04:14:00,
2013-02-13 23:44:00,71.7,68.0,29.97,SSE,154,0.0,1.0,89,0.00,,,0.00,weatherlink.com 1.10,2013-02-14 04:44:00,
2013-02-13 23:59:00,71.2,68.0,29.97,SSE,153,0.0,0.0,90,0.00,,,0.00,weatherlink.com 1.10,2013-02-14 04:59:00,